Location: Cambroso
(45.2833°N, 12.0850°E)
Time: 19:11:16
(UTC+00:00)

Cosmos 1300 - Pass Details

Date: 21 January 2021
Orbit: 511 x 513 km, 82.5° (Epoch: 28 February)

Event Time Altitude Azimuth Distance (km) Brightness Sun altitude
Rises 17:08:44 0° 344° (NNW) 2,639 6.3 -11.4°
Reaches altitude 10° 17:10:57 10° 337° (NNW) 1,747 5.5 -11.8°
Maximum altitude 17:14:32 39° 267° (W) 778 4.2 -12.4°
Drops below altitude 10° 17:18:06 10° 198° (SSW) 1,732 5.8 -13.0°
Sets 17:20:18 0° 190° (S) 2,612 6.6 -13.4°
